Location: *
(52.7917°N, 53.7205°E)
Time: 16:56:13
(UTC+00:00)

Daily predictions for brighter satellites

Satellite Brightness Start Highest point End
(mag) Time Altitude Azimuth Time Altitude Azimuth Time Altitude Azimuth
CENTAUR R/B 4.4 17:06:24 10° WNW 17:12:46 37° N 17:20:03 10° ENE
Cosmos 2322 Rocket 2.5 17:08:01 10° SW 17:13:44 79° WNW 17:19:29 10° NNE
Cosmos 614 Rocket 4.3 17:11:32 10° S 17:16:18 43° ESE 17:21:07 10° NE
Cosmos 2228 Rocket 3.2 17:13:09 10° N 17:17:45 88° E 17:22:21 10° S
USA 215 3.3 17:11:38 10° ENE 17:18:06 58° SE 17:24:33 10° SW
Cosmos 2151 3.8 17:14:13 10° SSW 17:18:27 55° WNW 17:22:43 10° N
SPOT 5 3.4 17:13:55 10° SE 17:18:38 47° ENE 17:23:08 10° N
Cosmos 1825 2.5 17:15:15 10° SSE 17:18:51 45° E 17:22:29 10° NNE
Cosmos 2278 Rocket 3.0 17:13:58 10° NNW 17:19:22 42° NE 17:24:45 10° ESE
CZ-2C R/B 3.6 17:15:28 10° S 17:20:39 58° W 17:25:36 10° NNW
Landsat 7 4.0 17:16:02 10° SSE 17:20:43 61° ENE 17:25:26 10° N
Cosmos 1238 Rocket 4.4 17:14:39 10° SSW 17:21:20 73° WNW 17:27:36 10° N
ATLAS 3B R/B 4.4 17:15:28 10° WNW 17:21:24 32° N 17:27:19 10° ENE
SL-16 R/B 2.8 17:16:55 10° SW 17:22:33 64° NW 17:28:13 10° NNE
Cosmos 1844 Rocket 3.0 17:17:26 10° NW 17:23:06 71° WSW 17:28:45 10° SSE
ERS-1 Rocket 3.1 17:18:28 10° SSE 17:23:27 67° ENE 17:28:29 10° N
Sich 1 4.4 17:21:03 10° SE 17:24:24 23° E 17:27:45 10° NE
Cosmos 407 Rocket 3.7 17:19:21 10° S 17:24:32 56° ESE 17:29:48 10° NNE
IGS 5A 3.7 17:23:17 10° SSE 17:27:22 58° ENE 17:31:30 10° N
H-2A R/B 3.9 17:26:27 10° SSW 17:31:06 29° W 17:35:43 10° NNW
Cosmos 2333 Rocket 3.0 17:26:13 10° SSE 17:31:08 31° ESE 17:36:03 10° NE
Resurs 01 Rocket 3.4 17:28:02 10° SSW 17:31:55 29° W 17:35:49 10° NNW
Cosmos 1190 Rocket 4.1 17:29:23 10° S 17:34:29 61° ESE 17:39:40 10° NNE
Cosmos 1500 Rocket 3.6 17:32:11 10° S 17:36:39 84° E 17:41:09 10° NNE
Cosmos 1356 Rocket 3.9 17:33:47 10° NNW 17:38:03 63° W 17:42:19 10° S
Cosmos 2322 3.8 17:33:19 10° SSW 17:38:51 60° ESE 17:44:26 10° NE
EO 1 Del DPAF 3.2 17:38:56 10° NNE 17:42:44 66° ESE 17:46:31 10° S
Lacrosse 5 2.3 17:37:53 10° WNW 17:42:57 65° NNE 17:48:00 10° E
Meteor 2-3 Rocket 3.9 17:37:57 10° S 17:43:39 62° E 17:49:24 10° NNE
Thor Agena Rocket 3.7 17:41:14 10° NNE 17:46:10 51° E 17:51:05 10° S
Cosmos 1607 4.3 17:40:23 10° NW 17:46:25 58° SW 17:52:24 10° SSE
Cosmos 44 Rocket 4.0 17:41:46 10° WSW 17:46:50 61° NW 17:51:47 10° NE
Meteor 1-26 Rocket 4.3 17:42:36 10° NNW 17:48:15 81° W 17:53:45 10° S
Terra 2.0 17:45:26 11° SSE 17:50:00 61° ENE 17:54:43 10° N
USA 81 4.1 17:44:54 10° N 17:50:14 87° W 17:55:31 10° S
ASTEX 1 4.1 17:49:42 10° NNE 17:54:24 39° E 17:58:39 12° SSE
USA 267 3.7 17:48:57 11° SE 17:55:09 51° SW 18:01:32 10° WNW
ISS -3.8 17:54:15 10° WSW 17:57:34 66° S 18:00:54 10° E
ATLAS CENTAUR R/B 1.7 17:53:11 10° NW 17:58:03 77° NE 18:02:02 13° SE
Cosmos 2279 Rocket 4.3 17:52:53 10° SSE 17:58:46 48° E 18:04:41 10° NNE
Cosmos 1633 4.3 17:59:43 13° ESE 18:01:33 18° E 18:04:00 10° NE
MOS 1 Rocket 3.9 17:58:05 10° NNE 18:02:18 37° E 18:06:09 13° SSE
Cosmos 1408 3.8 17:59:24 10° SSW 18:02:58 45° WNW 18:06:35 10° N
Landsat 4 4.3 18:00:03 10° NNE 18:03:32 37° E 18:06:21 14° SSE
Gbstr 26 Del rocket 2.5 18:00:14 10° W 18:04:09 78° S 18:07:53 10° E
Cosmos 2237 4.5 17:59:33 10° SW 18:05:15 75° NW 18:10:59 10° NNE
Cosmos 1707 Rocket 3.6 18:00:59 10° N 18:05:28 80° ENE 18:09:24 13° SSE
NOSS 3-1 (C) 3.4 18:00:56 10° SSW 18:06:36 70° SE 18:13:13 10° NE
Mayak 0.5 18:07:49 10° NE 18:10:48 18° E 18:12:53 13° SE
NOSS 8 (A) 4.2 18:09:39 10° SSW 18:12:46 59° SE 18:15:54 10° NE
SL-16 R/B 4.1 18:14:10 10° ESE 18:16:18 13° E 18:18:40 10° ENE
IRAS Rocket 4.4 18:13:38 15° SSE 18:18:23 70° ENE 18:24:00 10° NNW
SPOT 1/Viking Rocket 4.4 18:16:35 10° S 18:21:33 46° W 18:26:36 10° NNW
COSMOS 2428 2.7 18:17:33 10° SSW 18:23:15 72° ESE 18:28:59 10° NE
Cosmos 1980 4.4 18:19:11 14° SSE 18:23:32 35° ESE 18:28:40 10° NE
Cosmos 2360 Rocket 3.1 18:19:13 10° SW 18:24:42 51° NW 18:30:13 10° NNE
Cosmos 1812 3.9 18:21:24 10° N 18:24:55 32° ENE 18:27:19 17° SE
CZ-2C R/B 3.2 18:21:27 10° N 18:26:36 59° WNW 18:31:39 10° SSW
ADEOS Rocket 4.5 18:21:53 10° N 18:26:56 34° WNW 18:31:49 10° WSW
Cosmos 2208 Rocket 4.3 18:23:45 10° NNW 18:29:13 66° ENE 18:33:20 17° SE
Cosmos 1805 Rocket 3.8 18:25:18 10° SSW 18:29:38 68° WNW 18:33:59 10° N
Cosmos 2237 Rocket 2.8 18:25:46 15° SSE 18:29:52 36° ESE 18:34:59 10° NE
Cosmos 1570 Rocket 4.0 18:30:28 10° NNW 18:35:45 81° ENE 18:39:35 19° SSE
Cosmos 1634 Rocket 4.4 18:30:14 10° SSW 18:36:27 66° WNW 18:42:39 10° N
Lacrosse 5 rocket 1.6 18:32:32 10° WNW 18:37:09 70° SSW 18:40:23 19° SE
Okean 1-7 4.4 18:35:26 10° N 18:39:10 28° ENE 18:41:54 15° ESE
Meteor 1-10 Rocket 4.3 18:34:11 10° NNW 18:39:51 80° W 18:44:25 17° S
Meteor 2-6 Rocket 4.3 18:36:56 10° NNW 18:42:22 71° W 18:46:49 16° S
Cosmos 1814 Rocket 4.3 18:37:39 10° NNW 18:42:46 59° ENE 18:46:28 18° SE
Cosmos 676 Rocket 4.4 18:41:01 10° SW 18:46:13 64° WNW 18:51:30 10° NNE
USA 229 DEB 4.0 18:40:04 10° WSW 18:46:45 72° NW 18:53:48 10° NE
USA 229 4.0 18:40:10 10° WSW 18:46:51 73° NW 18:53:54 10° NE
Cosmos 1943 Rocket 3.8 18:42:42 10° NNW 18:47:21 27° NE 18:52:01 10° E
Cosmos 540 Rocket 4.0 18:43:24 10° NNW 18:48:25 51° ENE 18:52:09 17° SE
Cosmos 1782 4.0 18:44:43 10° NNW 18:48:26 36° W 18:51:42 12° SSW
ATLAS 5 CENTAUR R/B 2.8 18:43:11 10° NW 18:48:32 55° NE 18:54:41 10° ESE
Cosmos 1633 Rocket 3.0 18:45:53 16° S 18:49:24 88° WNW 18:53:47 10° N
NOSS 3-1 (A) 3.4 18:44:01 10° SW 18:49:45 83° SE 18:56:31 10° NE
Meteor 2-13 Rocket 4.5 18:44:12 10° N 18:50:19 74° ENE 18:54:45 20° SSE
Cosmos 1666 Rocket 3.8 18:46:41 12° SSW 18:50:46 74° WNW 18:55:15 10° N
Cosmos 2219 Rocket 2.3 18:46:26 10° SW 18:52:08 79° WNW 18:57:51 10° NNE
SL-4 R/B 2.3 18:47:31 10° WSW 18:52:21 71° SSE 18:57:04 10° E
Cosmos 1933 Rocket 4.0 18:50:25 22° SSE 18:52:52 45° E 18:57:04 10° NNE
Cosmos 1140 Rocket 4.4 18:48:42 10° SW 18:53:44 50° WNW 18:58:50 10° NNE
Cosmos 2242 Rocket 3.6 18:51:38 10° N 18:56:13 82° E 18:59:04 23° SSE
SPOT 5 4.4 18:52:37 10° SSW 18:56:53 29° W 19:01:00 10° NW
Cosmos 1400 Rocket 2.9 18:54:06 10° N 18:58:16 77° ENE 19:00:35 25° SSE
Cosmos 1741 Rocket 4.0 18:54:09 14° SSW 18:58:42 72° ESE 19:03:55 10° NNE
Cosmos 1315 Rocket 3.8 18:56:20 10° N 19:00:02 36° ENE 19:02:11 20° SE
Cosmos 1655 Rocket 4.3 18:54:05 10° NNW 19:00:15 62° W 19:05:17 16° S
NOSS 2-3 (E) 3.8 18:55:57 10° SSW 19:00:27 65° SE 19:05:55 10° NE
USA 215 3.5 18:54:47 10° ENE 19:01:19 75° NNW 19:07:52 10° W
Sich 1 3.9 18:57:42 10° SSW 19:01:49 45° WNW 19:05:57 10° N
Cosmos 2297 3.8 18:56:19 10° NNW 19:01:59 73° ENE 19:06:01 20° SE
Cosmos 1862 Rocket 3.8 18:58:54 10° NNW 19:03:13 64° W 19:05:59 21° S
NOSS 2-3 (D) 3.8 18:58:59 10° SSW 19:03:27 64° SE 19:08:53 10° NE
Cosmos 2278 Rocket 2.8 18:58:09 10° NW 19:03:33 46° WSW 19:07:20 19° S
Cosmos 1867 3.5 18:58:19 10° SSW 19:03:46 75° SE 19:09:16 10° NE
Cosmos 1862 3.3 19:01:26 21° S 19:04:05 87° WNW 19:08:06 10° N
SeaSat 1 4.1 19:01:06 10° ENE 19:04:21 17° ESE 19:05:38 16° ESE
CENTAUR R/B 4.1 18:58:09 10° NW 19:05:14 45° NNE 19:13:11 10° E
Cosmos 1850 Rocket 4.0 19:02:05 12° SSW 19:07:05 85° ESE 19:12:29 10° NNE
ALOS 2 3.3 19:04:46 20° SE 19:07:24 44° ENE 19:11:36 10° N
NOSS 3-2 (A) 4.4 19:01:04 10° NW 19:08:05 60° NNE 19:16:04 10° ESE
YAOGAN 11 4.3 19:05:55 24° SE 19:08:24 60° ENE 19:12:42 10° N
Cosmos 1470 Rocket 3.5 19:08:01 22° S 19:10:49 85° E 19:15:16 10° NNE
ATLAS 3B R/B 3.7 19:07:20 10° NW 19:13:39 43° NNE 19:19:59 10° E
Cosmos 2333 Rocket 2.8 19:09:28 10° SW 19:15:07 60° NW 19:20:46 10° NNE
Cosmos 1437 3.9 19:15:16 24° ESE 19:15:44 25° E 19:18:21 10° NE
GP-B 3.1 19:12:57 10° N 19:17:25 73° E 19:19:50 27° S
Cosmos 192 4.3 19:12:28 10° NNW 19:17:26 87° WSW 19:20:18 25° SSE
Cosmos 841 Rocket 3.5 19:15:18 10° NNW 19:20:28 78° WSW 19:23:29 25° SSE
Helios 1A 3.2 19:19:17 26° S 19:21:30 63° WSW 19:25:39 10° NNW
Cosmos 1763 Rocket 4.1 19:19:13 10° NW 19:24:12 48° WSW 19:27:15 22° S
Meteor 1-27 Rocket 4.2 19:20:06 10° NNW 19:25:54 59° W 19:29:55 20° S
Lacrosse 5 2.1 19:21:00 10° WNW 19:25:55 52° SW 19:28:31 26° SSE
Cosmos 2369 Rocket 3.3 19:21:13 10° NNW 19:26:39 41° NE 19:31:56 10° ESE
Cosmos 2266 Rocket 4.4 19:21:49 10° NNW 19:28:04 61° W 19:32:30 20° SSW
Terra 3.7 19:24:27 10° SW 19:28:08 22° W 19:31:50 10° NW
ERS-2 3.2 19:31:40 22° ESE 19:33:28 36° ENE 19:36:53 10° N
Cosmos 2285 Rocket 4.1 19:30:02 23° S 19:34:00 58° ESE 19:40:11 10° NNE
ISS -3.9 19:30:51 10° W 19:34:10 64° S 19:35:37 30° ESE
Nimbus 7 Rocket 4.4 19:30:01 10° NNE 19:35:59 86° ESE 19:40:19 20° SSW
Cosmos 1633 3.5 19:33:52 19° SW 19:36:07 43° WNW 19:39:35 10° N
USA 238 DEB 3.9 19:29:06 10° NW 19:36:15 80° NE 19:42:53 13° SE
USA 238 3.9 19:29:11 10° NW 19:36:21 80° NE 19:43:01 13° SE
ATLAS CENTAUR R/B 3.2 19:32:57 10° WNW 19:36:31 21° WSW 19:38:14 17° SW
BREEZE-M DEB (TANK) 3.4 19:37:29 10° WSW 19:44:05 - ESE 19:38:30 23° WSW
ATLAS 2AS CENTAUR R/B 4.3 19:38:55 18° SE 19:42:17 24° ESE 19:48:20 10° ENE
COSMOS 2455 2.9 19:39:22 19° SSW 19:43:47 67° ESE 19:49:47 10° NE
Helios 1B rocket 2.5 19:40:49 10° NNE 19:44:57 62° ESE 19:46:42 32° S
SWAS 4.5 19:41:03 10° NW 19:45:19 70° WSW 19:47:10 32° SSE
NOSS 2-3 (C) 4.2 19:41:15 10° SW 19:45:53 72° NW 19:51:39 10° NE
Mayak -0.8 19:42:34 10° N 19:46:47 61° WNW 19:49:27 21° SW
NOSS 0 Rocket 4.3 19:41:02 10° SW 19:47:11 67° NW 19:53:21 10° NNE
Cosmos 1553 Rocket 4.5 19:44:14 23° SSE 19:47:41 47° E 19:53:30 10° NNE
Lacrosse 4 Rocket 1.7 19:45:56 29° S 19:47:58 57° ESE 19:52:20 10° NE
Meteor 1-29 3.4 19:45:13 10° NNE 19:48:32 45° E 19:49:23 37° SE
Gbstr 26 Del rocket 2.8 19:47:06 10° W 19:50:44 48° SSW 19:51:45 37° SSE
BREEZE-M DEB (TANK) 3.7 19:39:35 10° W 19:50:44 62° S 19:53:38 12° ESE
Okean 3 4.3 19:49:14 10° N 19:53:18 43° ENE 19:55:23 24° SE
SL-16 R/B 2.2 19:56:01 25° S 19:59:20 66° ESE 20:04:58 10° NE
Cosmos 1812 4.3 19:57:21 10° NNW 20:00:39 27° W 20:02:25 19° SW
Okean 1 3.3 19:57:34 10° N 20:01:39 76° E 20:03:16 35° SSE
BREEZE-M DEB (TANK) 4.5 19:49:04 10° W 20:02:36 51° S 20:06:55 10° ESE
Cosmos 1980 4.4 20:01:54 10° SW 20:07:28 53° NW 20:13:03 10° NNE
Cosmos 2237 Rocket 3.0 20:08:20 10° SW 20:13:49 51° NW 20:19:19 10° NNE
Meteor 2-4 Rocket 4.2 20:09:17 10° N 20:14:59 56° ENE 20:18:36 22° SE
Lacrosse 5 rocket 3.2 20:12:36 10° W 20:15:44 18° SW 20:16:00 18° SW
Okean 1-7 3.9 20:12:51 10° NNW 20:16:51 38° W 20:18:46 25° SW
Cosmos 1745 Rocket 4.0 20:10:39 10° N 20:17:00 80° E 20:20:48 26° SSE
CZ-4 R/B 3.9 20:13:51 10° NNE 20:18:33 66° ESE 20:20:46 31° S
SL-08 R/B 4.5 20:13:02 10° NNW 20:19:14 80° W 20:22:54 26° S
NOSS 3-2 (C) 4.0 20:15:06 10° NW 20:22:24 85° NE 20:30:38 10° SE
SL-16 R/B 4.3 20:20:36 10° ESE 20:25:39 27° NE 20:30:43 10° N
Cosmos 2098 Rocket 3.6 20:22:57 10° N 20:25:43 29° ENE 20:26:37 24° ESE
SL-19 R/B 4.4 20:23:42 27° S 20:26:58 75° WSW 20:33:04 10° NNW
Cosmos 1943 Rocket 2.1 20:26:13 10° NNW 20:31:46 82° WSW 20:35:03 25° SSE
SL-4 R/B 2.2 20:27:15 10° W 20:32:04 74° S 20:36:39 10° ESE
Cosmos 1386 Rocket 4.4 20:26:37 10° N 20:32:41 89° E 20:36:13 26° S
ATLAS 5 CENTAUR R/B 2.7 20:27:50 10° NW 20:33:20 49° SW 20:36:34 26° S
FALCON 9 DEB 4.3 20:36:26 27° ESE 20:36:26 27° ESE 20:38:45 10° E
Cosmos 1315 Rocket 4.3 20:33:10 10° NW 20:36:27 25° W 20:37:53 20° SW
Cosmos 1515 3.9 20:32:50 10° N 20:36:37 64° ENE 20:38:07 34° SSE
Cosmos 2219 Rocket 4.4 20:32:29 10° W 20:36:59 24° NW 20:41:31 10° NNE
H-2A R/B 4.1 20:38:36 10° ESE 20:42:14 25° ENE 20:45:53 10° N
SeaSat 1 2.4 20:37:32 10° NNE 20:42:31 87° SE 20:45:23 26° SSW
ALOS 2 4.0 20:42:10 20° SW 20:43:55 26° W 20:47:38 10° NW
USA 215 3.8 20:37:40 10° E 20:44:06 63° N 20:50:33 10° WNW
Cosmos 2221 Rocket 4.5 20:43:49 10° NNW 20:48:00 38° W 20:49:53 26° SW
Cosmos 1602 4.0 20:49:57 33° SW 20:51:30 63° WNW 20:55:24 10° N
Meteor 1-19 Rocket 4.4 20:46:23 10° NNW 20:51:45 57° W 20:54:34 27° SSW
Cosmos 1809 Rocket 4.4 20:47:20 10° NNW 20:53:27 77° W 20:57:04 26° S
CENTAUR R/B 3.1 20:49:02 10° NW 20:56:50 89° NE 21:05:28 10° SE
Unknown 3.7 20:56:51 39° SSE 20:56:52 39° SSE 21:00:12 10° E
CZ-2D R/B 4.2 20:53:38 10° NE 20:57:17 18° E 21:00:57 10° SE
NOSS 3-2 (A) 4.2 20:52:01 10° NW 20:59:13 56° SW 21:05:01 20° SSE
Falcon 9 debris 3.4 21:02:24 44° SSE 21:02:37 44° SSE 21:05:56 10° E
PSLV R/B 3.7 20:58:39 10° NNE 21:02:53 62° ESE 21:04:42 32° S
USA 32 4.0 20:59:01 10° N 21:04:19 86° E 21:07:18 27° S
ATLAS 3B R/B 2.6 20:58:12 10° NW 21:04:52 79° SW 21:11:27 11° SE
SL-19 R/B 4.2 21:00:07 10° NNE 21:05:48 85° WNW 21:08:56 26° SSW
Unknown 3.3 21:05:56 44° S 21:06:14 46° SSE 21:09:33 10° E
ERS-2 3.6 21:06:18 22° WSW 21:07:10 24° W 21:10:12 10° NW
OPS 8737 4.3 21:06:31 38° SSW 21:07:42 73° SE 21:10:48 10° NE
Lacrosse 5 3.8 21:05:36 10° W 21:07:40 13° WSW 21:07:40 13° WSW
ISS -1.6 21:07:42 10° W 21:08:25 14° W 21:08:25 14° W
Cosmos 2369 Rocket 2.6 21:05:20 10° NW 21:10:49 49° WSW 21:13:41 27° S
Unknown 4.4 21:10:56 31° SSE 21:11:29 32° SE 21:15:12 10° E
Meteor 2-16 Rocket 4.4 21:06:46 10° NNW 21:12:58 89° W 21:17:02 23° S
Unknown 4.4 21:12:32 31° SSE 21:13:08 33° SSE 21:16:52 10° E
Cosmos 968 Rocket 3.4 21:11:06 27° SSW 21:14:00 86° WNW 21:19:11 10° NNE
BREEZE-M DEB (TANK) 4.3 21:09:25 10° W 21:14:38 82° S 21:34:23 10° E
Unknown 4.3 21:14:10 32° SSE 21:14:49 33° SSE 21:18:35 10° E
Unknown 2.8 21:15:38 51° SE 21:15:38 51° SE 21:18:10 10° E
Unknown 2.8 21:16:00 52° SE 21:16:00 52° SE 21:18:36 10° E
Unknown 4.3 21:15:44 32° S 21:16:28 34° SSE 21:20:14 10° E
Cosmos 1666 4.2 21:14:57 19° SE 21:16:52 28° E 21:20:14 10° NNE
Meteor 1-11 Rocket 3.8 21:13:58 26° S 21:17:17 74° E 21:23:03 10° NNE
Unknown 4.3 21:17:17 32° S 21:18:04 35° SSE 21:21:51 10° E
Unknown 4.3 21:17:57 32° S 21:18:46 35° SSE 21:22:35 10° E
NOSS 2-2 (E) 3.4 21:17:17 34° SSW 21:18:50 66° SE 21:23:22 10° NE
Cosmos 1538 Rocket 4.0 21:14:30 10° NNW 21:19:49 84° ENE 21:23:44 18° SSE
Unknown 4.3 21:20:32 32° S 21:21:25 36° SSE 21:25:14 10° E
Cosmos 1503 Rocket 4.2 21:18:14 24° SW 21:21:29 73° WNW 21:26:52 10° NNE
Mayak 1.6 21:20:32 10° NW 21:21:31 11° NW 21:22:31 10° WNW
Starlink (trailer) 4.2 21:22:07 32° S 21:23:03 37° SSE 21:26:53 10° E
CZ-4C R/B 4.0 21:21:56 30° SSW 21:23:50 50° W 21:28:11 10° NNW
Meteor 1-5 Rocket 4.4 21:20:35 25° S 21:24:14 87° ESE 21:30:14 10° NNE
NOSS 8 (E) 4.3 21:23:44 44° S 21:24:26 60° SE 21:27:38 10° NE
Unknown 4.2 21:23:43 32° S 21:24:43 38° SSE 21:28:34 10° E
Cosmos 1674 Rocket 4.3 21:21:08 10° NNW 21:25:21 41° W 21:27:14 27° SW
Cosmos 1975 Rocket 3.3 21:21:13 10° N 21:25:33 66° ENE 21:28:14 22° SSE
Unknown 4.2 21:25:18 32° S 21:26:22 38° SSE 21:30:14 10° E
Lacrosse 4 Rocket 3.2 21:22:57 10° W 21:26:56 30° NW 21:30:53 10° NNE
COSMOS 2455 4.1 21:24:29 10° WSW 21:30:08 39° NW 21:35:48 10° NE
Unknown 4.1 21:29:09 32° S 21:30:17 40° SSE 21:34:08 10° E
Cosmos 1603 3.7 21:26:56 24° SSW 21:30:31 86° WNW 21:36:13 10° NNE
Cosmos 1733 Rocket 3.8 21:29:04 23° SW 21:31:22 43° WNW 21:35:34 10° N
Sich 1 Rocket 4.3 21:29:15 22° SSE 21:31:55 48° E 21:36:22 10° NNE
ATLAS 2AS CENTAUR R/B 3.1 21:26:19 20° SSW 21:32:15 76° SE 21:40:17 10° NE
Unknown 4.1 21:31:41 32° SSW 21:32:59 41° SSE 21:36:54 10° E
Unknown 4.1 21:33:16 31° SSW 21:34:38 42° SSE 21:38:34 10° E
NOSS 2-2 (D) 3.3 21:34:04 31° SSW 21:35:50 75° SE 21:40:20 10° NE
Unknown 4.0 21:34:52 31° SSW 21:36:18 43° SSE 21:40:15 10° E
Cosmos 1680 Rocket 4.4 21:31:48 10° NNW 21:36:59 49° ENE 21:42:06 10° SE
CZ-4B R/B 3.4 21:32:20 10° NNE 21:37:22 82° ESE 21:40:13 26° SSW
Unknown 4.0 21:36:27 31° SSW 21:37:56 44° SSE 21:41:54 10° E
SAR-Lupe-1 4.3 21:36:14 22° SSE 21:38:22 66° ENE 21:41:57 10° N
Cosmos 1378 Rocket 4.2 21:35:10 10° NNW 21:39:14 41° W 21:41:05 26° SW
Unknown 3.9 21:38:06 30° SSW 21:39:41 46° SSE 21:43:40 10° E
Unknown 3.7 21:39:04 31° SSW 21:40:35 50° SSE 21:44:23 10° E
Cosmos 2074 Rocket 4.1 21:34:18 10° N 21:40:37 77° ENE 21:45:51 16° SSE
Unknown 3.6 21:39:17 31° SW 21:40:48 52° SSE 21:44:32 10° E
Unknown 4.0 21:39:40 30° SSW 21:41:15 45° SSE 21:45:14 10° E
Unknown 3.9 21:41:16 29° SSW 21:42:59 47° SSE 21:46:59 10° E
Cosmos 1354 Rocket 4.5 21:39:52 19° SW 21:43:30 55° WNW 21:48:45 10° NNE
SL-16 R/B 3.6 21:38:50 10° WSW 21:43:54 33° NW 21:49:00 10° NNE
Unknown 3.9 21:42:49 29° SSW 21:44:33 47° SSE 21:48:33 10° E
Unknown 3.9 21:44:26 28° SSW 21:46:13 48° SSE 21:50:13 10° E
Cosmos 1709 Rocket 4.5 21:41:04 10° NNW 21:46:55 46° W 21:50:38 21° SSW
Iridium 96 3.7 21:46:31 46° S 21:47:14 87° WNW 21:49:52 10° N
Cosmos 1656 Rocket 3.8 21:43:51 10° NW 21:49:26 57° WSW 21:53:26 19° S
Cosmos 1500 3.6 21:48:22 28° SW 21:50:08 53° WNW 21:53:55 10° N
Cosmos 1777 Rocket 4.2 21:47:20 23° S 21:50:31 63° ESE 21:55:43 10° NNE
Unknown 3.8 21:49:14 27° SW 21:51:12 51° SSE 21:55:13 10° E
Meteor 1-23 Rocket 4.4 21:45:39 10° NNW 21:51:26 63° W 21:55:20 21° S
Unknown 3.8 21:50:47 26° SW 21:52:48 51° SSE 21:56:52 10° E
Cosmos 1346 Rocket 3.7 21:50:53 19° SSE 21:53:22 41° E 21:57:07 10° NNE
Unknown 3.8 21:52:25 26° SW 21:54:30 52° SSE 21:58:33 10° E
Unknown 3.3 21:53:11 24° SW 21:55:17 63° SSE 21:59:01 10° E
NPP 4.4 21:50:23 10° NNE 21:55:35 46° E 21:59:43 16° SSE
Unknown 3.8 21:54:02 25° SW 21:56:11 53° SSE 22:00:14 10° E
Cosmos 1536 3.2 21:55:02 26° SW 21:57:05 54° WNW 22:01:05 10° N
Cosmos 1943 3.3 21:54:10 21° SW 21:58:05 77° WNW 22:03:49 10° NNE
Unknown 3.7 21:57:12 24° SW 21:59:28 55° SSE 22:03:33 10° ENE
Cosmos 1908 Rocket 4.0 21:57:21 23° SW 21:59:50 52° WNW 22:04:12 10° N
Unknown 3.0 21:58:37 19° WSW 22:00:58 77° SSE 22:04:26 10° E
Unknown 3.7 21:58:47 23° SW 22:01:09 56° SSE 22:05:15 10° ENE
Resurs 1-4 Rocket 2.7 21:56:36 10° NNE 22:01:48 51° E 22:05:51 16° S
ADEOS II 4.2 21:58:25 10° NE 22:02:17 20° E 22:06:07 10° SE
Unknown 3.7 22:00:23 23° SW 22:02:48 57° SSE 22:06:53 10° ENE
CZ-4C R/B 4.0 21:59:34 11° SE 22:02:54 46° ENE 22:06:24 10° N
Nadezhda 1 Rocket 4.5 21:57:55 14° SSE 22:03:16 58° E 22:09:29 10° NNE
MOZ.5/SAFIR/RUBIN 5/SL-8 3.8 22:00:34 16° SSE 22:04:16 87° WSW 22:09:05 10° NNW
Unknown 3.7 22:01:58 23° SW 22:04:25 57° SSE 22:08:30 10° ENE
Unknown 3.7 22:03:36 22° SW 22:06:07 59° SSE 22:10:13 10° ENE
Cosmos 2098 Rocket 4.3 22:04:58 10° NW 22:06:38 14° W 22:07:08 14° W
Unknown 3.7 22:05:06 22° SW 22:07:36 58° SSE 22:11:42 10° ENE
SL-16 R/B 2.5 22:03:14 14° SSE 22:08:45 78° WSW 22:14:59 10° NNW
NOSS 2-2 (C) 3.7 22:07:34 18° WSW 22:10:21 64° NW 22:14:58 10° NE
Unknown 3.7 22:08:16 21° SW 22:10:53 59° SSE 22:14:59 10° ENE
SL-4 R/B 2.7 22:07:09 10° W 22:11:30 38° SSW 22:15:37 10° SE
Okean 2 Rocket 3.3 22:08:48 19° S 22:11:54 66° E 22:16:19 10° NNE
FALCON 9 DEB 3.0 22:09:46 15° WSW 22:12:32 83° S 22:16:00 10° E
Unknown 3.7 22:09:53 20° SW 22:12:35 60° SSE 22:16:41 10° ENE
Cosmos 1536 Rocket 3.9 22:09:16 10° N 22:13:45 65° ENE 22:18:09 10° SSE
Unknown 3.6 22:11:30 19° WSW 22:14:21 64° SSE 22:18:29 10° ENE
Cosmos 1943 Rocket 3.8 22:11:22 10° WNW 22:14:40 16° W 22:16:32 14° WSW
Cosmos 1066 Rocket 4.5 22:09:57 10° NNW 22:15:36 56° W 22:19:45 18° SSW
Unknown 3.6 22:13:05 19° SW 22:15:53 62° SSE 22:20:01 10° ENE
ATLAS 5 CENTAUR R/B 4.3 22:15:11 10° W 22:17:04 11° WSW 22:18:04 11° WSW
Unknown 3.6 22:14:39 19° WSW 22:17:33 63° SSE 22:21:41 10° ENE
H-2A R/B 2.4 22:14:57 20° S 22:17:57 55° WSW 22:22:23 10° NNW
SeaSat 1 4.3 22:15:35 10° NNE 22:19:35 25° NW 22:23:33 10° W
SL-08 R/B 3.6 22:15:25 10° SSE 22:20:05 68° ENE 22:24:53 10° N
Unknown 3.6 22:17:51 18° WSW 22:20:51 65° SSE 22:24:59 10° ENE
Cosmos 2084 3.3 22:16:42 10° NW 22:20:58 90° NNW 22:25:07 10° SE
Cosmos 1378 3.7 22:17:52 10° N 22:21:33 56° ENE 22:25:12 10° SSE
Unknown 3.6 22:19:27 17° WSW 22:22:32 66° SSE 22:26:40 10° ENE
Unknown 3.6 22:21:03 17° WSW 22:24:12 67° SSE 22:28:20 10° ENE
Cosmos 2341 Rocket 4.5 22:19:06 10° N 22:25:28 65° ENE 22:31:49 10° SSE
Unknown 3.6 22:22:37 16° WSW 22:25:49 68° SSE 22:29:57 10° ENE
Cosmos 1610 Rocket 4.5 22:19:47 10° NNW 22:26:02 79° W 22:31:50 12° S
USA 215 3.3 22:20:24 10° ESE 22:26:57 85° NNE 22:33:32 10° WNW
Unknown 3.6 22:24:14 16° WSW 22:27:31 69° SSE 22:31:39 10° E
Cosmos 2112 Rocket 4.0 22:24:39 10° NNW 22:30:02 84° WSW 22:35:21 10° SSE
Cosmos 2154 Rocket 4.0 22:24:18 10° NNW 22:30:42 80° W 22:37:01 10° S
Unknown 3.5 22:27:30 14° WSW 22:30:56 73° SSE 22:35:00 10° E
Unknown 3.6 22:27:32 14° WSW 22:31:07 74° SSE 22:35:16 10° E
Unknown 3.5 22:29:04 13° WSW 22:32:41 74° SSE 22:36:50 10° E
Cosmos 44 4.0 22:28:54 10° NW 22:33:33 54° NE 22:37:56 10° ESE
Unknown 3.1 22:30:26 10° W 22:33:58 90° SSE 22:37:31 10° E
Unknown 3.6 22:30:38 14° WSW 22:34:13 73° SSE 22:38:22 10° E
Cosmos 1782 Rocket 4.3 22:31:16 18° SW 22:34:15 42° WNW 22:38:32 10° N
Cosmos 1300 Rocket 3.8 22:31:31 15° S 22:35:09 71° E 22:39:36 10° NNE
OPS 6432 4.5 22:32:20 10° NW 22:35:38 77° SW 22:39:55 10° SE
Unknown 3.6 22:32:14 13° WSW 22:35:49 73° SSE 22:39:58 10° E
NOSS 3-4 (A) 3.5 22:31:40 15° SW 22:36:53 85° NW 22:43:30 10° NE
NOSS 3-4 (C) 3.5 22:31:47 15° SW 22:36:58 85° NW 22:43:35 10° NE
CZ-2D R/B 2.2 22:32:36 10° NNE 22:38:05 88° WNW 22:42:43 15° SSW
Unknown 3.6 22:35:25 13° WSW 22:39:09 75° SSE 22:43:18 10° E
Falcon 9 debris 3.1 22:36:05 10° W 22:39:32 87° N 22:43:00 10° E
Unknown 3.6 22:36:59 12° WSW 22:40:47 76° SSE 22:44:56 10° E
Cosmos 1743 2.8 22:38:05 19° SSW 22:40:47 69° WNW 22:44:39 10° N
Okean 2 4.0 22:37:54 10° NNW 22:41:52 42° W 22:44:44 17° SSW
Landsat 5 3.5 22:37:35 10° SSE 22:42:00 86° WSW 22:46:17 10° NNW
Unknown 3.6 22:38:34 12° WSW 22:42:25 76° SSE 22:46:35 10° E
Cosmos 158 Rocket 4.3 22:37:42 10° NNW 22:42:42 69° ENE 22:47:49 10° SE
Cosmos 1975 2.8 22:39:51 17° SSW 22:43:00 85° WNW 22:47:07 10° N
Unknown 3.1 22:39:42 10° W 22:43:09 87° N 22:46:36 10° E
Unknown 3.6 22:40:10 11° WSW 22:44:06 77° SSE 22:48:16 10° E
EXPRESS MD2 2.6 22:43:40 19° WSW 22:45:05 44° S 22:48:14 10° ESE
RESURS DK-1 2.4 22:42:57 17° SSW 22:46:04 76° ESE 22:50:15 10° NE
Cosmos 1025 Rocket 3.0 22:41:54 10° NNW 22:46:19 79° W 22:50:42 10° S
CENTAUR R/B 3.8 22:40:10 10° NW 22:47:06 33° WSW 22:54:27 10° S
Cosmos 2151 Rocket 3.6 22:44:08 15° S 22:47:55 88° W 22:52:30 10° N
ARIANE 5 R/B 3.3 22:44:17 10° NNE 22:49:16 49° E 22:54:16 10° S
Unknown 2.6 22:47:52 10° W 22:50:41 83° N 22:53:30 10° E
Unknown 3.6 22:46:36 10° WSW 22:50:46 80° SSE 22:54:56 10° E
Meteor 2-15 4.5 22:45:44 14° SSW 22:50:59 73° WNW 22:57:05 10° N
Aureole 2 Rocket 2.0 22:47:49 10° NNW 22:51:05 75° WSW 22:54:07 10° SSE
Unknown 2.6 22:48:18 10° W 22:51:08 83° N 22:53:58 10° E
CBERS-1 4.0 22:46:54 10° NNE 22:52:05 87° WNW 22:56:43 13° SSW
Unknown 3.6 22:48:16 10° WSW 22:52:25 81° SSE 22:56:36 10° E
Cosmos 1666 3.9 22:49:50 15° SW 22:52:26 30° WNW 22:55:54 10° N
Meteor 1-21 4.3 22:47:08 10° NNW 22:52:57 76° W 22:58:42 10° S
Unknown 3.6 22:49:58 10° WSW 22:54:07 82° SSE 22:58:17 10° E
ATLAS 3B R/B 3.8 22:49:51 10° WNW 22:54:38 21° WSW 22:58:36 13° SSW
Unknown 3.6 22:51:36 10° WSW 22:55:46 82° SSE 22:59:56 10° E
Unknown 3.6 22:53:13 10° WSW 22:57:24 83° SSE 23:01:34 10° E
Unknown 3.6 22:53:59 10° WSW 22:58:10 83° SSE 23:02:21 10° E
CZ-4B R/B 1.2 22:56:57 10° SSE 23:00:04 82° ENE 23:03:09 10° NNW
Unknown 3.6 22:56:36 10° WSW 23:00:45 84° SSE 23:04:55 10° E
Cosmos 1842 3.4 22:57:13 10° NNW 23:01:02 55° W 23:04:47 10° S
Okean 1 Rocket 3.6 22:57:13 10° S 23:01:38 61° E 23:06:03 10° NNE
Starlink (trailer) 3.6 22:58:15 10° WSW 23:02:25 85° SSE 23:06:35 10° E
Cosmos 1544 4.1 22:59:06 10° SSE 23:02:37 43° E 23:06:10 10° NNE
SL-8 Rocket 4.2 22:56:28 10° N 23:02:49 82° E 23:09:10 10° SSE
Unknown 3.6 22:59:55 10° WSW 23:04:04 86° S 23:08:14 10° E
Genesis I 3.3 23:01:43 14° SW 23:05:10 87° SE 23:09:16 10° NE
Unknown 3.6 23:01:34 10° WSW 23:05:44 86° S 23:09:54 10° E
Lacrosse 4 Rocket 4.3 23:04:54 10° NW 23:07:00 13° NNW 23:09:04 10° NNE
Cosmos 1340 3.5 23:05:53 14° SW 23:08:50 38° WNW 23:12:25 10° N
Unknown 3.6 23:05:23 10° WSW 23:09:30 87° S 23:13:37 10° E
Unknown 3.6 23:08:13 10° W 23:12:23 88° SSE 23:16:33 10° E
Unknown 3.6 23:09:52 10° W 23:14:02 89° S 23:18:13 10° E
Okean 1-7 Rocket 4.3 23:10:43 10° N 23:15:14 58° ENE 23:19:41 10° SSE
Unknown 3.6 23:11:33 10° W 23:15:43 89° S 23:19:53 10° E
deb Chang Zheng 4 3.8 23:12:00 10° N 23:16:12 58° WNW 23:20:16 11° SSW
Unknown 3.6 23:13:11 10° W 23:17:22 90° ESE 23:21:32 10° E
Spot 4 Rocket 4.3 23:13:29 10° NNE 23:18:40 71° ESE 23:23:49 10° S
Cosmos 1680 Rocket 4.3 23:14:14 10° NW 23:18:57 33° WSW 23:23:37 10° SSW
Unknown 3.6 23:14:57 10° W 23:19:08 89° N 23:23:18 10° E
Unknown 3.5 23:15:13 10° W 23:19:08 87° N 23:23:04 10° E
Unknown 3.4 23:15:17 10° W 23:19:09 86° N 23:23:00 10° E
Cosmos 405 3.1 23:16:07 10° NNW 23:19:36 57° W 23:23:04 10° S
TSX-5 3.1 23:17:25 10° NW 23:20:37 68° WSW 23:23:47 10° SSE
Unknown 3.6 23:16:32 10° W 23:20:42 89° N 23:24:52 10° E
IRS-1C 4.2 23:16:19 10° NNE 23:21:41 74° WNW 23:26:59 10° SSW
Unknown 3.6 23:18:16 10° W 23:22:26 89° NNW 23:26:37 10° E
ATLAS 2AS CENTAUR R/B 3.8 23:16:00 10° W 23:23:52 51° NNW 23:31:34 10° NE
Unknown 3.6 23:19:50 10° W 23:24:00 89° N 23:28:10 10° E
Cosmos 1937 Rocket 3.9 23:19:22 10° S 23:24:30 62° ESE 23:29:43 10° NNE
Cosmos 2181 Rocket 4.1 23:18:41 10° S 23:24:58 88° E 23:31:11 10° N
SJ 16-02 1.8 23:21:05 10° S 23:25:23 58° ESE 23:29:44 10° NNE
Unknown 3.7 23:21:31 10° W 23:25:41 88° N 23:29:51 10° E
CZ-2C R/B 3.4 23:24:04 10° NNE 23:27:43 51° E 23:31:24 10° S
COSMOS 2406 3.6 23:23:12 10° SSW 23:28:46 64° ESE 23:34:25 10° NE
Cosmos 1346 Rocket 4.3 23:26:37 10° WSW 23:29:54 24° WNW 23:33:09 10° N
Unknown 3.7 23:26:31 10° W 23:30:41 87° N 23:34:51 10° E
Cosmos 1898 Rocket 3.6 23:26:14 10° SSW 23:31:35 89° SE 23:36:57 10° NNE
Unknown 3.7 23:28:08 10° W 23:32:18 87° N 23:36:29 10° E
Unknown 3.4 23:29:35 10° W 23:33:22 85° N 23:37:08 10° E
Unknown 3.7 23:29:50 10° W 23:34:01 87° N 23:38:11 10° E
Unknown 3.7 23:31:32 10° W 23:35:42 87° N 23:39:52 10° E
IDEFIX/ARIANE 42P 4.5 23:33:14 10° NNE 23:37:41 28° E 23:42:06 10° SSE
Unknown 3.2 23:34:38 10° W 23:38:07 88° N 23:41:36 10° E
Unknown 3.7 23:34:49 10° W 23:39:00 86° N 23:43:11 10° E
IRS-1D 4.0 23:35:01 10° N 23:39:42 44° WNW 23:44:24 10° SW
Cosmos 1455 Rocket 4.2 23:36:17 10° SSE 23:40:24 43° E 23:44:32 10° NNE
Cosmos 1697 Rocket 2.8 23:34:54 10° NNW 23:40:36 87° ENE 23:46:18 10° SSE
Unknown 3.7 23:36:30 10° W 23:40:41 86° N 23:44:52 10° E
Resurs 1-4 Rocket 3.2 23:36:47 10° N 23:41:26 32° WNW 23:46:04 10° WSW
Unknown 3.7 23:38:10 10° W 23:42:19 86° N 23:46:30 10° E
ADEOS II 2.2 23:37:18 10° NNE 23:42:35 76° WNW 23:47:50 10° SSW
Unknown 3.7 23:39:46 10° W 23:43:56 86° N 23:48:07 10° E
Cosmos 1441 Rocket 4.2 23:40:54 10° S 23:44:37 47° E 23:48:24 10° NNE
Unknown 3.7 23:41:30 10° W 23:45:41 86° N 23:49:50 10° E
Cosmos 1833 Rocket 3.8 23:42:16 10° S 23:47:33 42° ESE 23:52:50 10° NE
